| time (UTC) | temp F | wind direction | speed MPH | gust MPH | rain 1hr in | rain 24hr in | rain mn in | humidity % | barometer mb |
| 20260906043058 | 69 | 127 | 0.0 | 0.0 | 0.00 | 0.00 | 0.00 | 89 | 1017.9 |
| 20260906041556 | 69 | 127 | 0.0 | 0.0 | 0.00 | 0.00 | 0.00 | 90 | 1017.9 |
| 20260906034557 | 69 | 104 | 0.0 | 0.0 | 0.00 | 0.00 | 0.00 | 89 | 1017.9 |
| 20260906033055 | 70 | 103 | 0.0 | 0.0 | 0.00 | 0.00 | 0.00 | 87 | 1018.1 |
| 20260906031555 | 70 | 103 | 0.0 | 0.0 | 0.00 | 0.00 | 0.00 | 87 | 1018.1 |
| 20260906030052 | 71 | 103 | 0.0 | 0.0 | 0.00 | 0.00 | 0.00 | 86 | 1018.3 |
| 20260906024558 | 71 | 103 | 0.0 | 0.0 | 0.00 | 0.00 | 0.00 | 86 | 1018.2 |
| 20260906023052 | 71 | 103 | 0.0 | 0.0 | 0.00 | 0.00 | 0.00 | 84 | 1017.8 |
| 20260906021551 | 72 | 102 | 0.0 | 0.0 | 0.00 | 0.00 | 0.00 | 82 | 1017.6 |
| 20260906020050 | 73 | 101 | 0.0 | 0.0 | 0.00 | 0.00 | 0.00 | 80 | 1017.0 |
| 20260906014627 | 74 | 101 | 0.0 | 0.0 | 0.00 | 0.00 | 0.00 | 77 | 1016.6 |
| 20260906013057 | 74 | 126 | 0.0 | 0.0 | 0.00 | 0.00 | 0.00 | 77 | 1016.3 |
| 20260906011549 | 75 | 219 | 0.0 | 0.0 | 0.00 | 0.00 | 0.00 | 74 | 1016.1 |
| 20260906010052 | 76 | 219 | 0.0 | 0.0 | 0.00 | 0.00 | 0.00 | 72 | 1015.5 |
| 20260906004551 | 77 | 91 | 0.0 | 0.0 | 0.00 | 0.00 | 0.00 | 70 | 1015.3 |
| 20260906003047 | 78 | 77 | 0.0 | 0.0 | 0.00 | 0.00 | 0.00 | 69 | 1015.3 |
| 20260906001546 | 80 | 95 | 0.0 | 0.0 | 0.00 | 0.00 | 0.00 | 67 | 1015.4 |
| 20260906000046 | 81 | 99 | 0.0 | 4.0 | 0.00 | 0.00 | 0.00 | 65 | 1015.3 |
| 20260905234545 | 81 | 94 | 0.0 | 1.0 | 0.00 | 0.00 | 0.00 | 64 | 1015.2 |
| 20260905233047 | 82 | 97 | 1.0 | 15.0 | 0.00 | 0.00 | 0.00 | 64 | 1014.9 |
| 20260905231545 | 82 | 78 | 0.0 | 12.0 | 0.00 | 0.00 | 0.00 | 64 | 1014.9 |
| 20260905230043 | 83 | 76 | 0.0 | 9.0 | 0.00 | 0.00 | 0.00 | 63 | 1014.8 |
| 20260905224543 | 83 | 117 | 0.0 | 13.0 | 0.00 | 0.00 | 0.00 | 62 | 1014.8 |
| 20260905223042 | 83 | 101 | 0.0 | 11.0 | 0.00 | 0.00 | 0.00 | 61 | 1015.1 |
| 20260905221604 | 83 | 88 | 0.0 | 7.0 | 0.00 | 0.00 | 0.00 | 61 | 1015.3 |
| 20260905220041 | 84 | 89 | 0.0 | 9.0 | 0.00 | 0.00 | 0.00 | 61 | 1015.1 |
| 20260905214540 | 83 | 85 | 0.0 | 15.0 | 0.00 | 0.00 | 0.00 | 64 | 1015.0 |
| 20260905213055 | 83 | 78 | 0.0 | 10.0 | 0.00 | 0.00 | 0.00 | 64 | 1015.1 |
| 20260905211543 | 83 | 81 | 0.0 | 7.0 | 0.00 | 0.00 | 0.00 | 64 | 1015.7 |
| 20260905210049 | 83 | 23 | 0.0 | 3.0 | 0.00 | 0.00 | 0.00 | 63 | 1016.0 |
| 20260905204544 | 84 | 84 | 0.0 | 5.0 | 0.00 | 0.00 | 0.00 | 63 | 1016.1 |
| 20260905203041 | 83 | 114 | 0.0 | 0.0 | 0.00 | 0.00 | 0.00 | 64 | 1016.5 |
| 20260905201539 | 84 | 88 | 0.0 | 0.0 | 0.00 | 0.00 | 0.00 | 62 | 1016.6 |
| 20260905200038 | 84 | 80 | 0.0 | 0.0 | 0.00 | 0.00 | 0.00 | 65 | 1016.9 |
| 20260905194533 | 82 | 137 | 0.0 | 0.0 | 0.00 | 0.00 | 0.00 | 65 | 1017.0 |
| 20260905193032 | 83 | 95 | 0.0 | 0.0 | 0.00 | 0.00 | 0.00 | 66 | 1017.1 |
| 20260905191529 | 82 | 259 | 0.0 | 0.0 | 0.00 | 0.00 | 0.00 | 67 | 1017.2 |
| 20260905190028 | 82 | 79 | 0.0 | 0.0 | 0.00 | 0.00 | 0.00 | 66 | 1017.1 |
| 20260905184535 | 81 | 240 | 0.0 | 1.0 | 0.00 | 0.00 | 0.00 | 72 | 1017.2 |
| 20260905183022 | 80 | 93 | 0.0 | 0.0 | 0.00 | 0.00 | 0.00 | 73 | 1017.4 |
| 20260905181518 | 78 | 91 | 0.0 | 0.0 | 0.00 | 0.00 | 0.00 | 78 | 1017.4 |
| 20260905180016 | 76 | 95 | 0.0 | 7.0 | 0.00 | 0.00 | 0.00 | 83 | 1017.6 |
| 20260905174509 | 73 | 91 | 0.0 | 5.0 | 0.00 | 0.00 | 0.00 | 94 | 1017.6 |
| 20260905173006 | 72 | 116 | 0.0 | 5.0 | 0.00 | 0.00 | 0.00 | 96 | 1017.9 |
| 20260905171505 | 71 | 89 | 0.0 | 5.0 | 0.00 | 0.00 | 0.00 | 96 | 1017.8 |
| 20260905170003 | 71 | 101 | 2.0 | 6.0 | 0.00 | 0.00 | 0.00 | 96 | 1018.0 |
| 20260905164501 | 71 | 135 | 0.0 | 0.0 | 0.00 | 0.00 | 0.00 | 96 | 1018.2 |
| 20260905163100 | 71 | 84 | 0.0 | 0.0 | 0.00 | 0.00 | 0.00 | 97 | 1018.1 |
| 20260905161604 | 70 | 84 | 0.0 | 0.0 | 0.00 | 0.00 | 0.00 | 97 | 1018.3 |
| 20260905160057 | 70 | 72 | 0.0 | 6.0 | 0.00 | 0.00 | 0.00 | 97 | 1018.1 |
| 20260905154611 | 69 | 86 | 2.0 | 7.0 | 0.00 | 0.00 | 0.00 | 97 | 1017.7 |
| 20260905153052 | 68 | 49 | 2.0 | 8.0 | 0.00 | 0.00 | 0.00 | 97 | 1017.6 |
| 20260905151559 | 68 | 104 | 0.0 | 4.0 | 0.00 | 0.00 | 0.00 | 97 | 1017.7 |
| 20260905150047 | 67 | 43 | 0.0 | 3.0 | 0.00 | 0.00 | 0.00 | 97 | 1017.8 |
| 20260905144546 | 67 | 103 | 0.0 | 0.0 | 0.00 | 0.00 | 0.00 | 97 | 1017.8 |
| 20260905143044 | 67 | 79 | 0.0 | 0.0 | 0.00 | 0.00 | 0.00 | 97 | 1017.7 |
| 20260905141544 | 66 | 353 | 0.0 | 0.0 | 0.00 | 0.00 | 0.00 | 97 | 1017.7 |
| 20260905140042 | 66 | 84 | 0.0 | 0.0 | 0.00 | 0.00 | 0.00 | 97 | 1017.6 |
| 20260905134540 | 66 | 84 | 0.0 | 0.0 | 0.00 | 0.00 | 0.00 | 97 | 1017.6 |
| 20260905133038 | 66 | 94 | 0.0 | 0.0 | 0.00 | 0.00 | 0.00 | 97 | 1017.3 |
| 20260905131534 | 66 | 283 | 0.0 | 0.0 | 0.00 | 0.00 | 0.00 | 97 | 1016.9 |
| 20260905130034 | 65 | 1 | 0.0 | 5.0 | 0.00 | 0.00 | 0.00 | 97 | 1016.3 |
| 20260905124532 | 65 | 73 | 1.0 | 6.0 | 0.00 | 0.00 | 0.00 | 97 | 1016.0 |
| 20260905123031 | 65 | 58 | 0.0 | 5.0 | 0.00 | 0.00 | 0.00 | 97 | 1016.2 |
| 20260905121531 | 65 | 352 | 0.0 | 0.0 | 0.00 | 0.00 | 0.00 | 97 | 1016.5 |
| 20260905120030 | 65 | 4 | 0.0 | 2.0 | 0.00 | 0.00 | 0.00 | 97 | 1016.5 |
| 20260905114529 | 65 | 39 | 0.0 | 0.0 | 0.00 | 0.00 | 0.00 | 97 | 1016.3 |
| 20260905113029 | 65 | 330 | 0.0 | 0.0 | 0.00 | 0.00 | 0.00 | 97 | 1016.1 |
| 20260905111527 | 66 | 43 | 0.0 | 0.0 | 0.00 | 0.00 | 0.00 | 97 | 1015.9 |
| 20260905110025 | 66 | 198 | 0.0 | 0.0 | 0.00 | 0.00 | 0.00 | 97 | 1015.9 |
| 20260905104525 | 66 | 125 | 0.0 | 0.0 | 0.00 | 0.00 | 0.00 | 97 | 1015.7 |
| 20260905103024 | 66 | 201 | 0.0 | 0.0 | 0.00 | 0.00 | 0.00 | 96 | 1016.0 |
| 20260905101528 | 66 | 84 | 0.0 | 0.0 | 0.00 | 0.00 | 0.00 | 96 | 1015.2 |
| 20260905100024 | 66 | 96 | 0.0 | 5.0 | 0.00 | 0.00 | 0.00 | 96 | 1015.1 |
| 20260905094521 | 66 | 67 | 0.0 | 5.0 | 0.00 | 0.00 | 0.00 | 96 | 1015.0 |
| 20260905093021 | 66 | 105 | 0.0 | 0.0 | 0.00 | 0.00 | 0.00 | 96 | 1014.9 |
| 20260905091520 | 66 | 132 | 0.0 | 6.0 | 0.00 | 0.00 | 0.00 | 95 | 1015.1 |
| 20260905090019 | 66 | 63 | 0.0 | 0.0 | 0.00 | 0.00 | 0.00 | 95 | 1015.5 |
| 20260905084518 | 66 | 44 | 0.0 | 4.0 | 0.00 | 0.00 | 0.00 | 95 | 1015.5 |
| 20260905083026 | 66 | 87 | 0.0 | 0.0 | 0.00 | 0.00 | 0.00 | 94 | 1015.6 |
| 20260905081522 | 66 | 75 | 1.0 | 4.0 | 0.00 | 0.00 | 0.00 | 94 | 1015.7 |
| 20260905080031 | 66 | 41 | 0.0 | 3.0 | 0.00 | 0.00 | 0.00 | 94 | 1015.8 |
| 20260905074516 | 66 | 89 | 1.0 | 6.0 | 0.00 | 0.00 | 0.00 | 94 | 1015.7 |
| 20260905073015 | 66 | 60 | 1.0 | 6.0 | 0.00 | 0.00 | 0.00 | 94 | 1015.7 |
| 20260905071515 | 66 | 37 | 0.0 | 4.0 | 0.00 | 0.00 | 0.00 | 94 | 1015.6 |
| 20260905070028 | 66 | 316 | 0.0 | 4.0 | 0.00 | 0.00 | 0.00 | 94 | 1015.7 |
| 20260905064513 | 66 | 117 | 0.0 | 0.0 | 0.00 | 0.00 | 0.00 | 94 | 1015.7 |
| 20260905063013 | 66 | 349 | 0.0 | 0.0 | 0.00 | 0.00 | 0.00 | 94 | 1015.6 |
| 20260905061512 | 66 | 27 | 0.0 | 0.0 | 0.00 | 0.00 | 0.00 | 94 | 1015.6 |
| 20260905060009 | 66 | 68 | 0.0 | 4.0 | 0.00 | 0.00 | 0.00 | 94 | 1015.4 |
| 20260905054517 | 66 | 328 | 0.0 | 3.0 | 0.00 | 0.00 | 0.00 | 95 | 1015.1 |
| 20260905053006 | 66 | 23 | 0.0 | 6.0 | 0.00 | 0.00 | 0.00 | 95 | 1015.0 |
| 20260905051503 | 65 | 285 | 0.0 | 0.0 | 0.00 | 0.00 | 0.00 | 94 | 1015.1 |
| 20260905044600 | 65 | 243 | 0.0 | 0.0 | 0.00 | 0.00 | 0.00 | 93 | 1015.0 |